Ciney, Belgium
Current Conditions -  °F | °C
As of 4:55 AM on Friday 31 Oct 2014 (Local Time) from EBFS Reporting Station
Few Clouds Few Clouds  
Wind Chill: 55°   Ceiling: Unl
Heat Index: 55°   Visibility: 6mi
Dew Point: 48°   Wind: 9mph
Humidity: 77%   Direction: 180°S
Pressure: 30.18"   Gusts: NA
Location:  50.29°N, 5.1°E
Report Text: EBFS 310355Z 18008KT 9999 FEW110 13/09 Q1022 BLU
Loading
Personal Weather Stations






























Interactive Weather Map
Tropical Storm Tracking
New forecast layout! Learn more

10-Day Weather Forecast

Advertisements
Track Severe Weather on mobile